Regional Weather Roundup
Issued by NWS Northern Indiana

Home | Current Version | Previous Version | Graphics & Text | Print | Product List | Glossary On
Versions: 1 2 3 4 5 6 7 8 9 10 11 12 13 14 15 16 17 18 19 20 21 22 23 24 25 26 27 28 29 30 31 32 33 34 35 36 37 38 39 40 41 42 43 44 45 46 47 48 49 50
000
ASUS43 KIWX 071910
RWRIWX

KIWX WEATHER ROUNDUP
NATIONAL WEATHER SERVICE NORTHERN INDIANA
200 PM EST WED DEC 07 2016

NOTE: "FAIR" INDICATES FEW OR NO CLOUDS BELOW 12,000 FEET WITH NO
SIGNIFICANT WEATHER AND/OR OBSTRUCTIONS TO VISIBILITY.

* THESE STATIONS ARE NOT UNDER NWS QUALITY CONTROL. THEY ALSO MAY NOT
  REPORT WEATHER SUCH AS PRECIPITATION OR FOG.

INZ001>027-072000-
NORTHERN INDIANA

CITY           SKY/WX    TMP DP  RH WIND       PRES   REMARKS
GARY*          PTSUNNY   32  21  64 SW12      30.10S WCI  23
VALPARAISO     CLOUDY    31  21  66 SW14      30.08F WCI  21
MICHIGAN CITY* CLOUDY    32  21  64 SW10      30.08R WCI  24
LAPORTE*       CLOUDY    29  22  74 SW12      30.08  WCI  19
KNOX*          CLOUDY    32   7  34 SW15      30.08S WCI  22
SOUTH BEND     CLOUDY    31  22  69 SW13      30.07F WCI  21
ELKHART*       SUNNY     34  21  60 SW12      30.05F WCI  25
GOSHEN         PTSUNNY   34  21  59 SW14      30.05F WCI  25
MONTICELLO*    PTSUNNY   33  20  58 SW10      30.11S WCI  25
LOGANSPORT*    CLOUDY    32  23  69 W14       30.11S WCI  22
ROCHESTER*     MOSUNNY   34  27  75 W9G16     30.08F WCI  26
WARSAW*        MOSUNNY   32  21  64 W12       30.06F WCI  23
ANGOLA*        SUNNY     34  21  60 SW14      30.03F WCI  24
FORT WAYNE     PTSUNNY   35  23  61 W15       30.08F WCI  25
HUNTINGTON*    CLOUDY    34  22  60 W12G18    30.08F WCI  25
PERU/GRISSOM   CLOUDY    33  22  64 W14       30.08F WCI  24
MARION*        SUNNY     35  25  67 W14       30.10F WCI  25

$$
INZ028>050-072000-
CENTRAL INDIANA

CITY           SKY/WX    TMP DP  RH WIND       PRES   REMARKS
LAFAYETTE      MOSUNNY   33  22  63 W10       30.13S WCI  25
KOKOMO*        PTSUNNY   35  23  61 W12       30.10F WCI  27
MUNCIE*        SUNNY     36  21  54 W9        30.09F
INDIANAPOLIS   PTSUNNY   36  22  56 SW10      30.12F

$$
MIZ043>046-050>051-056>058-064>065-071>073-077>080-072000-
SOUTHWEST LOWER MICHIGAN

CITY           SKY/WX    TMP DP  RH WIND       PRES   REMARKS
BATTLE CREEK   MOSUNNY   35  24  64 SW16      29.99F WCI  25
BENTON HARBOR  CLOUDY    34  24  67 SW14G25   30.05F WCI  25
COLDWATER*     CLOUDY    35  23  62 SW13      30.01F WCI  26
HILLSDALE*     MOSUNNY   32  23  69 SW12G20   30.00F WCI  23
HOLLAND        PTSUNNY   35  26  69 W16       30.00F WCI  25
GRAND RAPIDS   PTSUNNY   33  23  66 W18       29.98F WCI  22
KALAMAZOO      MOSUNNY   35  22  58 W12       30.01F WCI  27
STURGIS*       PTSUNNY   33  23  66 SW12      30.02F WCI  25
THREE RIVERS*  PTSUNNY   33  23  66 SW10      30.03F WCI  25

$$
OHZ001>008-015>018-024>025-072000-
NORTHWEST OHIO

CITY           SKY/WX    TMP DP  RH WIND       PRES   REMARKS
WAUSEON*       PTSUNNY   34  23  64 W17       30.05S WCI  23
DEFIANCE       PTSUNNY   35  23  61 SW9       30.07F WCI  28
FINDLAY        SUNNY     37  24  59 SW13      30.06F
TOLEDO EXPRESS MOSUNNY   35  21  56 SW20G28   30.05F WCI  24
TOLEDO METCALF MOSUNNY   36  24  62 SW17      30.06F
LIMA           MOSUNNY   35  24  64 SW14      30.07F WCI  26

$$
AND FOR LAKE MICHIGAN COASTAL AND OPEN LAKE BUOY OBSERVATIONS

STATION/POSITION TEMP    WIND        PRES    VSBY  WAVE
                 AIR SEA DIR/SP/G                  HT/PER
                 (F)     (DEG/KT/KT) (MB)    (MI)  (FT/S)
CALUMET HARBOR    29     210/ 12/ 16 1018.1F
MICHIGAN CITY     30     200/ 12/ 15   N/A
BURNS HARBOR      30     230/ 10/ 17 1019.0F
SAINT JOSEPH      34     240/ 17/ 22 1017.9

$$
&&



USA.gov is the U.S. government's official web portal to all federal, state and local government web resources and services.